Location: Melizzano
(41.1500°N, 14.5000°E)
Time: 04:35:41
(UTC+00:00)

SPOT 1/Viking Rocket - Pass Details

Date: 11 May 2021
Orbit: 776 x 795 km, 98.4° (Epoch: 14 June)

Event Time Altitude Azimuth Distance (km) Brightness Sun altitude
Exits shadow 19:42:57 24° 136° (SE) 1,582 4.5 -15.5°
Maximum altitude 19:45:51 52° 72° (ENE) 983 3.8 -15.9°
Drops below altitude 10° 19:50:53 10° 357° (N) 2,357 6.7 -16.5°
Sets 19:53:15 0° 352° (N) 3,287 7.6 -16.9°
